Flag for Germany Weather past 2 weeks in Leutkirch im Allgäu, Baden-Württemberg, Germany

Now
49 °F

Drizzle. Overcast.


Feels Like: 49 °F
Forecast: 46 / 56 °F
Wind: 1 mph from South

Location: Kempten

Current Time: Sep 5, 2015 at 8:29:26 AM

Latest Report: Sep 5, 2015 at 8:00 AM


Visibility: 4 mi

Pressure: 30.05 "Hg (27.76 "Hg at 656m altitude)

Humidity: 97%

Dew point: 48 °F

Location of Leutkirch im AllgäuLocation

Historic Weather in Leutkirch im Allgäu — Graph

°F

Leutkirch im Allgäu temperature yesterday

Maximum temperature yesterday: 66 °F (at 3:00 PM)
Minimum temperature yesterday: 52 °F (at 8:00 AM)
Average temperature yesterday: 58 °F

Past Weeks' High & Low Weather Summary

 TemperatureHumidityPressure
High88 °F (Aug 30, 6:00 PM)100% (Aug 21, 7:00 AM)30.31 "Hg (Aug 21, 7:00 AM)
Low46 °F (Aug 21, 7:00 AM)28% (Aug 30, 2:00 PM)29.66 "Hg (Aug 24, 2:00 PM)
Average64 °F72%29.99 "Hg
* Reported Aug 21 7:00 AM — Sep 5 7:00 AM, Leutkirch im Allgäu, Weather by CustomWeather, © 2015

Note: Actual official high and low records may vary slightly from our data, if they occured in-between our weather recording intervals... More about our weather records

Advertising

Leutkirch im Allgäu weather history for previous 24 hours

 ConditionsComfort  
Time TempWeatherWind HumidityBarometerVisibility
7:00 AM
Sat, Sep 5
49 °FLight rain. Overcast.2 mph96%30.05 "Hg4 mi
4:00 AM51 °FOvercast.1 mph95%30.01 "Hg10 mi
3:00 AM51 °FLight rain. Overcast.2 mph96%30.01 "Hg6 mi
2:00 AM53 °FLight rain. Overcast.1 mph83%30.02 "Hg6 mi
1:00 AM54 °FOvercast.1 mph72%30.00 "Hg22 mi
11:00 PM
Fri, Sep 4
56 °FOvercast.2 mph78%29.97 "Hg18 mi
10:00 PM57 °FOvercast.1 mph86%29.96 "Hg19 mi
9:00 PM57 °FOvercast.1 mph87%29.95 "Hg19 mi
8:00 PM58 °FOvercast.2 mph78%29.93 "Hg22 mi
7:00 PM62 °FOvercast.1 mph65%29.93 "Hg25 mi
6:00 PM62 °FOvercast.1 mph61%29.93 "Hg28 mi
5:00 PM64 °FOvercast.2 mph47%29.92 "Hg28 mi
4:00 PM64 °FOvercast.3 mph46%29.94 "Hg9 mi
3:00 PM66 °FPartly sunny.3 mph43%29.94 "Hg16 mi
2:00 PM63 °FScattered clouds.2 mph48%29.97 "Hg25 mi
1:00 PM61 °FPartly sunny.2 mph54%29.99 "Hg31 mi
12:00 PM61 °FScattered clouds.3 mph62%30.00 "Hg19 mi
11:00 AM60 °FOvercast.2 mph69%30.01 "Hg17 mi
10:00 AM55 °FOvercast.2 mph79%30.03 "Hg19 mi
9:00 AM52 °FPartly sunny.2 mph94%30.04 "Hg19 mi
8:00 AM52 °FDrizzle. Overcast.2 mph95%30.04 "Hg14 mi
Weather by CustomWeather, © 2015

See weather overviewHow to use our weather pages